MQT2 HAAB-EDDK

Flight info

Callsign MQT2
Flight time N/A
Altitude 37000
Route RANSO3A RANSO UM308 UMTOK/N0486F390 UM308 KONET UG650 RASKA/N0484F400 T513 EGMEG/N0485F390 DCT MIGDA/N0486F400 L677 CVO L617 NOZ L551 ANTAR UN133 PEREN UL863 EVIVI L863 OKANA DCT TUVAR DCT OSDUK DCT GOTAR DCT LAMSI L604 MOOCE/N0400F240 L604 SULUS/N0473F400 T852 ARNIX DCT GULKO GULKO1B
Aircraft A359/H-SDE2E3GHIJ3J4J5LM1ORWXY/LB1D1

Departure

Time 2026-05-04 14:26
Airport Addis Ababa Bole International Airport (HAAB)

Arrival

Time N/A
Airport Cologne Bonn Airport (EDDK)
Time Latitude Longitude Altitude Speed Heading
2026-05-04 14:11 8.98214 38.79596 7623 ft 0 kts 345°
2026-05-04 14:17 8.98209 38.79597 7623 ft 0 kts 351°
2026-05-04 14:17 8.98185 38.79597 7627 ft 3 kts 16°
2026-05-04 14:18 8.98167 38.79589 7630 ft 0 kts 37°
2026-05-04 14:19 8.98167 38.79590 7630 ft 1 kts 39°
2026-05-04 14:20 8.98166 38.79602 7626 ft 3 kts 96°
2026-05-04 14:20 8.98170 38.79661 7623 ft 11 kts 86°
2026-05-04 14:20 8.98164 38.79733 7623 ft 9 kts 125°
2026-05-04 14:21 8.98012 38.79780 7623 ft 14 kts 163°
2026-05-04 14:21 8.97922 38.79807 7624 ft 13 kts 163°
2026-05-04 14:21 8.97849 38.79759 7624 ft 15 kts 250°
2026-05-04 14:21 8.97809 38.79645 7623 ft 19 kts 250°
2026-05-04 14:22 8.97763 38.79515 7624 ft 20 kts 250°
2026-05-04 14:22 8.97714 38.79372 7623 ft 23 kts 251°
2026-05-04 14:22 8.97663 38.79218 7624 ft 23 kts 253°
2026-05-04 14:22 8.97615 38.79060 7627 ft 24 kts 252°
2026-05-04 14:23 8.97530 38.78724 7631 ft 26 kts 257°
2026-05-04 14:23 8.97488 38.78543 7630 ft 27 kts 257°
2026-05-04 14:23 8.97436 38.78361 7632 ft 26 kts 254°
2026-05-04 14:24 8.97318 38.78298 7631 ft 21 kts 148°
2026-05-04 14:24 8.97242 38.78389 7631 ft 13 kts 84°
2026-05-04 14:24 8.97262 38.78491 7631 ft 27 kts 76°
2026-05-04 14:24 8.97368 38.78844 7629 ft 76 kts 73°
2026-05-04 14:25 8.97533 38.79435 7625 ft 114 kts 73°
2026-05-04 14:25 8.98117 38.81270 8020 ft 145 kts 70°
2026-05-04 14:25 8.98454 38.82270 8168 ft 154 kts 77°
2026-05-04 14:26 8.98599 38.83387 8406 ft 163 kts 85°
2026-05-04 14:26 8.98721 38.84571 8636 ft 176 kts 83°
2026-05-04 14:26 8.98890 38.85831 8838 ft 190 kts 82°
2026-05-04 14:26 8.99105 38.87203 9076 ft 204 kts 81°
2026-05-04 14:27 8.99350 38.88663 9436 ft 210 kts 80°
2026-05-04 14:27 8.99208 38.90111 9804 ft 216 kts 115°
2026-05-04 14:27 8.98129 38.91153 10260 ft 223 kts 154°
2026-05-04 14:27 8.96584 38.91253 10700 ft 231 kts 194°
2026-05-04 14:28 8.95198 38.90436 11218 ft 232 kts 216°
2026-05-04 14:28 8.93772 38.89659 11731 ft 233 kts 204°
2026-05-04 14:28 8.92427 38.88719 12191 ft 242 kts 225°
2026-05-04 14:28 8.91627 38.87183 12418 ft 258 kts 260°
2026-05-04 14:29 8.93007 38.83807 12840 ft 287 kts 321°
2026-05-04 14:29 8.96187 38.81051 13453 ft 318 kts 320°
2026-05-04 14:30 8.97872 38.79510 13746 ft 334 kts 319°
2026-05-04 14:30 8.99660 38.77929 14041 ft 348 kts 321°
2026-05-04 14:30 9.03479 38.74639 14652 ft 372 kts 321°
2026-05-04 14:31 9.05455 38.72912 15111 ft 377 kts 320°
2026-05-04 14:31 9.09450 38.69401 16143 ft 384 kts 320°
2026-05-04 14:32 9.13513 38.65818 17130 ft 390 kts 320°
2026-05-04 14:32 9.15564 38.64008 17629 ft 393 kts 320°
2026-05-04 14:32 9.17629 38.62187 18100 ft 396 kts 320°
2026-05-04 14:32 9.19714 38.60344 18576 ft 399 kts 320°
2026-05-04 14:33 9.21816 38.58488 19053 ft 402 kts 320°
2026-05-04 14:33 9.23931 38.56634 19562 ft 404 kts 321°
2026-05-04 14:33 9.26264 38.55048 20005 ft 406 kts 335°
2026-05-04 14:33 9.28938 38.54153 20459 ft 407 kts 351°
2026-05-04 14:34 9.31758 38.53821 20898 ft 410 kts 356°
2026-05-04 14:34 9.34607 38.53591 21328 ft 413 kts 356°
2026-05-04 14:34 9.37479 38.53358 21751 ft 416 kts 355°
2026-05-04 14:34 9.40372 38.53117 22191 ft 419 kts 355°
2026-05-04 14:35 9.43295 38.52969 22584 ft 422 kts
2026-05-04 14:35 9.46208 38.53350 22991 ft 424 kts 14°
2026-05-04 14:35 9.48975 38.54397 23370 ft 427 kts 26°
2026-05-04 14:35 9.51624 38.55786 23736 ft 430 kts 28°
2026-05-04 14:36 9.54270 38.57222 24083 ft 433 kts 28°
2026-05-04 14:36 9.56941 38.58667 24449 ft 436 kts 28°
2026-05-04 14:36 9.59628 38.60113 24828 ft 438 kts 28°
2026-05-04 14:36 9.62331 38.61563 25215 ft 441 kts 28°
2026-05-04 14:37 9.64130 38.62527 25495 ft 443 kts 28°
2026-05-04 14:37 9.66859 38.63989 25922 ft 445 kts 28°
2026-05-04 14:37 9.69610 38.65462 26351 ft 448 kts 28°
2026-05-04 14:37 9.72372 38.66941 26778 ft 450 kts 27°
2026-05-04 14:38 9.75179 38.68445 27204 ft 453 kts 27°
2026-05-04 14:38 9.77983 38.69946 27613 ft 456 kts 27°
2026-05-04 14:38 9.80796 38.71452 28019 ft 459 kts 27°
2026-05-04 14:38 9.83587 38.72946 28402 ft 462 kts 27°
2026-05-04 14:39 9.86437 38.74470 28801 ft 464 kts 27°
2026-05-04 14:39 9.89335 38.76024 29180 ft 466 kts 27°
2026-05-04 14:39 9.92167 38.77543 29555 ft 469 kts 27°
2026-05-04 14:40 9.98241 38.80110 30257 ft 473 kts 12°
2026-05-04 14:40 10.01505 38.80554 30598 ft 475 kts
2026-05-04 14:40 10.04813 38.80631 30950 ft 477 kts
2026-05-04 14:40 10.08140 38.80662 31259 ft 479 kts
2026-05-04 14:41 10.11484 38.80696 31566 ft 482 kts
2026-05-04 14:41 10.14841 38.80734 31884 ft 484 kts
2026-05-04 14:41 10.21602 38.80816 32477 ft 488 kts
2026-05-04 14:42 10.28416 38.80904 33046 ft 491 kts
2026-05-04 14:42 10.31835 38.80949 33303 ft 493 kts
2026-05-04 14:42 10.35273 38.80993 33547 ft 495 kts
2026-05-04 14:43 10.38720 38.81039 33763 ft 496 kts
2026-05-04 14:43 10.42182 38.81085 33998 ft 498 kts
2026-05-04 14:43 10.45651 38.81130 34288 ft 498 kts
2026-05-04 14:43 10.49057 38.81174 34605 ft 498 kts
2026-05-04 14:44 10.52520 38.81220 34902 ft 497 kts
2026-05-04 14:44 10.55977 38.81266 35196 ft 497 kts
2026-05-04 14:44 10.59440 38.81310 35475 ft 497 kts
2026-05-04 14:44 10.62847 38.81355 35760 ft 496 kts
2026-05-04 14:45 10.66303 38.81400 36015 ft 496 kts
2026-05-04 14:45 10.69752 38.81446 36295 ft 496 kts
2026-05-04 14:45 10.73204 38.81491 36557 ft 496 kts
2026-05-04 14:45 10.76652 38.81537 36786 ft 496 kts
2026-05-04 14:46 10.80102 38.81588 37066 ft 494 kts
2026-05-04 14:46 10.83526 38.81669 37426 ft 491 kts
2026-05-04 14:46 10.86931 38.81767 37747 ft 488 kts
2026-05-04 14:46 10.90323 38.81870 37960 ft 488 kts
2026-05-04 14:47 10.93714 38.81973 38182 ft 488 kts
2026-05-04 14:47 10.97108 38.82074 38382 ft 488 kts
2026-05-04 14:47 11.00504 38.82171 38580 ft 488 kts
2026-05-04 14:47 11.03897 38.82265 38782 ft 487 kts
2026-05-04 14:48 11.07281 38.82357 38938 ft 488 kts
2026-05-04 14:48 11.10725 38.82451 39102 ft 488 kts
2026-05-04 14:48 11.17487 38.82637 39219 ft 492 kts
2026-05-04 14:49 11.24325 38.82824 39209 ft 491 kts
2026-05-04 14:49 11.31160 38.83016 39205 ft 491 kts
2026-05-04 14:50 11.37984 38.83203 39197 ft 491 kts
2026-05-04 14:50 11.44817 38.83390 39190 ft 491 kts
2026-05-04 14:51 11.51689 38.83577 39182 ft 491 kts
2026-05-04 14:51 11.58474 38.83765 39183 ft 491 kts
2026-05-04 14:52 11.65306 38.83953 39188 ft 491 kts
2026-05-04 14:52 11.72126 38.84142 39172 ft 491 kts
2026-05-04 14:53 11.78955 38.84331 39174 ft 491 kts
2026-05-04 14:53 11.85792 38.84518 39163 ft 491 kts
2026-05-04 14:54 11.92621 38.84706 39158 ft 491 kts
2026-05-04 14:54 11.99454 38.84898 39155 ft 491 kts
2026-05-04 14:55 12.06285 38.85087 39149 ft 492 kts
2026-05-04 14:55 12.13123 38.85276 39136 ft 492 kts
2026-05-04 14:56 12.19966 38.85463 39139 ft 491 kts
2026-05-04 14:56 12.26796 38.85651 39126 ft 491 kts
2026-05-04 14:57 12.33633 38.85844 39119 ft 492 kts
2026-05-04 14:57 12.40478 38.86037 39115 ft 492 kts
2026-05-04 14:58 12.47311 38.86226 39117 ft 491 kts
2026-05-04 14:58 12.54143 38.86417 39100 ft 491 kts
2026-05-04 14:59 12.60984 38.86607 39097 ft 492 kts
2026-05-04 15:00 12.71290 38.86896 39091 ft 492 kts
2026-05-04 15:00 12.78083 38.87085 39072 ft 492 kts
2026-05-04 15:01 12.88350 38.87376 39036 ft 492 kts
2026-05-04 15:01 12.95197 38.87566 39035 ft 492 kts
2026-05-04 15:02 13.02041 38.87696 39028 ft 492 kts
2026-05-04 15:02 13.08893 38.87798 39022 ft 492 kts
2026-05-04 15:03 13.15784 38.87912 39006 ft 492 kts
2026-05-04 15:03 13.22635 38.88033 39007 ft 492 kts
2026-05-04 15:04 13.29489 38.88155 39010 ft 493 kts
2026-05-04 15:04 13.36343 38.88278 38996 ft 493 kts
2026-05-04 15:05 13.43205 38.88403 39003 ft 493 kts
2026-05-04 15:05 13.50071 38.88527 38992 ft 493 kts
2026-05-04 15:06 13.56933 38.88651 38987 ft 493 kts
2026-05-04 15:07 13.67227 38.88835 38982 ft 494 kts
2026-05-04 15:07 13.74048 38.88958 38970 ft 493 kts
2026-05-04 15:08 13.80958 38.89080 38973 ft 493 kts
2026-05-04 15:08 13.87826 38.89206 38963 ft 494 kts
2026-05-04 15:09 13.94700 38.89330 38961 ft 494 kts
2026-05-04 15:09 14.01571 38.89455 38954 ft 494 kts
2026-05-04 15:10 14.11893 38.89605 38951 ft 495 kts 360°
2026-05-04 15:11 14.22258 38.89700 38943 ft 497 kts
2026-05-04 15:11 14.29178 38.89772 38941 ft 497 kts
2026-05-04 15:12 14.36106 38.89849 38936 ft 498 kts 360°
2026-05-04 15:12 14.42987 38.89924 38939 ft 498 kts 360°
2026-05-04 15:13 14.49910 38.90000 38925 ft 498 kts 360°
2026-05-04 15:13 14.56878 38.90043 38924 ft 498 kts 359°
2026-05-04 15:14 14.63763 38.90033 38931 ft 498 kts 359°
2026-05-04 15:14 14.70736 38.90025 38913 ft 498 kts 359°
2026-05-04 15:15 14.77668 38.90027 38914 ft 498 kts 359°
2026-05-04 15:15 14.83422 38.90032 38911 ft 498 kts 359°
2026-05-04 15:16 14.93830 38.90045 38909 ft 498 kts 359°
2026-05-04 15:17 15.04228 38.90057 38903 ft 498 kts 359°
2026-05-04 15:17 15.14634 38.90068 38897 ft 499 kts 359°
2026-05-04 15:18 15.21576 38.90075 38897 ft 499 kts 359°
2026-05-04 15:19 15.31990 38.90121 38893 ft 499 kts
2026-05-04 15:19 15.42402 38.90534 38888 ft 500 kts
2026-05-04 15:20 15.49351 38.90819 38887 ft 500 kts
2026-05-04 15:20 15.56297 38.91083 38887 ft 500 kts
2026-05-04 15:21 15.63251 38.91333 38881 ft 500 kts
2026-05-04 15:22 15.73639 38.91703 38878 ft 500 kts
2026-05-04 15:22 15.84113 38.92077 38879 ft 500 kts
2026-05-04 15:23 15.91070 38.92323 38870 ft 501 kts
2026-05-04 15:23 15.97989 38.92575 38871 ft 500 kts
2026-05-04 15:24 16.11948 38.93083 38868 ft 500 kts 360°
2026-05-04 15:25 16.18907 38.93334 38868 ft 500 kts 360°
2026-05-04 15:26 16.29346 38.93710 38860 ft 500 kts 360°
2026-05-04 15:26 16.39776 38.94090 38860 ft 500 kts 360°
2026-05-04 15:27 16.50202 38.94467 38860 ft 500 kts 359°
2026-05-04 15:28 16.60631 38.94844 38859 ft 500 kts 359°
2026-05-04 15:29 16.71059 38.95224 38853 ft 500 kts 359°
2026-05-04 15:30 16.95375 38.96106 38857 ft 499 kts 359°
2026-05-04 15:31 17.05786 38.96486 38976 ft 499 kts 359°
2026-05-04 15:32 17.23092 38.97117 39026 ft 499 kts 359°
2026-05-04 15:34 17.40425 38.97752 39026 ft 498 kts 359°
2026-05-04 15:34 17.50824 38.98125 39028 ft 498 kts 359°
2026-05-04 15:35 17.61210 38.98497 39027 ft 498 kts 359°
2026-05-04 15:36 17.71605 38.98871 39026 ft 498 kts 359°
2026-05-04 15:36 17.78531 38.99119 39013 ft 498 kts 359°
2026-05-04 15:37 17.85454 38.99372 38962 ft 498 kts 359°
2026-05-04 15:37 17.92379 38.99620 38962 ft 498 kts 359°
2026-05-04 15:38 17.99305 38.99869 38962 ft 498 kts 359°
2026-05-04 15:38 18.06229 39.00119 38963 ft 498 kts 358°
2026-05-04 15:39 18.13156 39.00369 38972 ft 498 kts 358°
2026-05-04 15:40 18.23562 39.00817 38971 ft 499 kts 360°
2026-05-04 15:40 18.30501 39.01227 38994 ft 499 kts 360°
2026-05-04 15:41 18.37434 39.01632 39079 ft 499 kts 360°
2026-05-04 15:41 18.44374 39.02023 39149 ft 499 kts 359°
2026-05-04 15:42 18.51309 39.02406 39148 ft 499 kts 359°
2026-05-04 15:42 18.58251 39.02787 39143 ft 500 kts 359°
2026-05-04 15:43 18.65201 39.03173 39099 ft 500 kts 359°
2026-05-04 15:43 18.72149 39.03558 39006 ft 500 kts 359°
2026-05-04 15:44 18.79094 39.03944 38985 ft 500 kts 359°
2026-05-04 15:44 18.86043 39.04331 38981 ft 500 kts 359°
2026-05-04 15:45 18.92996 39.04716 38971 ft 501 kts 359°
2026-05-04 15:45 18.99956 39.05103 38969 ft 501 kts 359°
2026-05-04 15:46 19.06914 39.05492 38962 ft 501 kts 359°
2026-05-04 15:46 19.13828 39.05261 38954 ft 493 kts 346°
2026-05-04 15:47 19.20477 39.03621 38952 ft 491 kts 341°
2026-05-04 15:47 19.27068 39.01736 38943 ft 491 kts 340°
2026-05-04 15:48 19.33655 38.99821 38935 ft 491 kts 340°
2026-05-04 15:48 19.43538 38.96983 38915 ft 491 kts 341°
2026-05-04 15:49 19.50137 38.95101 38916 ft 490 kts 341°
2026-05-04 15:49 19.56731 38.93222 38911 ft 491 kts 341°
2026-05-04 15:50 19.63322 38.91336 38904 ft 491 kts 340°
2026-05-04 15:50 19.69917 38.89443 38896 ft 491 kts 340°
2026-05-04 15:51 19.76520 38.87551 38890 ft 491 kts 340°
2026-05-04 15:51 19.83122 38.85659 38888 ft 491 kts 340°
2026-05-04 15:52 19.89717 38.83766 38880 ft 491 kts 340°
2026-05-04 15:52 19.96312 38.81874 38879 ft 491 kts 340°
2026-05-04 15:53 20.02909 38.79977 38869 ft 491 kts 340°
2026-05-04 15:53 20.09511 38.78078 38832 ft 491 kts 340°
2026-05-04 15:54 20.16113 38.76175 38823 ft 491 kts 340°
2026-05-04 15:54 20.22675 38.74286 38822 ft 491 kts 340°
2026-05-04 15:55 20.29313 38.72370 38823 ft 491 kts 340°
2026-05-04 15:55 20.35918 38.70462 38824 ft 491 kts 340°
2026-05-04 15:56 20.42519 38.68554 38854 ft 491 kts 340°
2026-05-04 15:56 20.48003 38.66969 38851 ft 492 kts 340°
2026-05-04 15:57 20.54599 38.65059 38850 ft 491 kts 340°
2026-05-04 15:57 20.61191 38.63149 38841 ft 491 kts 340°
2026-05-04 15:58 20.67780 38.61238 38841 ft 491 kts 339°
2026-05-04 15:58 20.74372 38.59326 38835 ft 491 kts 339°
2026-05-04 15:59 20.80961 38.57413 38832 ft 490 kts 339°
2026-05-04 15:59 20.87755 38.56305 38832 ft 502 kts 355°
2026-05-04 16:00 20.94760 38.56675 38839 ft 506 kts 359°
2026-05-04 16:00 20.98272 38.56978 38984 ft 506 kts 360°
2026-05-04 16:00 21.01779 38.57303 39235 ft 505 kts 360°
2026-05-04 16:01 21.05270 38.57629 39420 ft 504 kts 359°
2026-05-04 16:01 21.08772 38.57948 39542 ft 505 kts 359°
2026-05-04 16:01 21.12275 38.58261 39678 ft 505 kts 359°
2026-05-04 16:01 21.15789 38.58569 39801 ft 506 kts 359°
2026-05-04 16:02 21.22811 38.59177 39812 ft 507 kts 359°
2026-05-04 16:03 21.33356 38.60083 39828 ft 507 kts 359°
2026-05-04 16:03 21.40384 38.60690 39812 ft 507 kts 359°
2026-05-04 16:04 21.47417 38.61299 39813 ft 507 kts 359°
2026-05-04 16:04 21.57964 38.62206 39820 ft 507 kts 358°
2026-05-04 16:05 21.64982 38.62815 39818 ft 506 kts 358°
2026-05-04 16:06 21.75513 38.63730 39805 ft 506 kts 358°
2026-05-04 16:07 21.89559 38.64953 39804 ft 506 kts 358°
2026-05-04 16:08 22.03540 38.66170 39804 ft 506 kts 358°
2026-05-04 16:09 22.21162 38.67706 39804 ft 507 kts 358°
2026-05-04 16:10 22.35241 38.68937 39804 ft 508 kts 358°
2026-05-04 16:11 22.49291 38.70171 39805 ft 508 kts 358°
2026-05-04 16:12 22.69864 38.68971 39803 ft 480 kts 332°
2026-05-04 16:13 22.82203 38.63511 39805 ft 479 kts 329°
2026-05-04 16:14 22.94513 38.57995 39805 ft 479 kts 329°
2026-05-04 16:16 23.09912 38.51141 39795 ft 478 kts 329°
2026-05-04 16:17 23.25250 38.44291 39793 ft 476 kts 329°
2026-05-04 16:18 23.37504 38.38803 39786 ft 476 kts 329°
2026-05-04 16:19 23.52790 38.31947 39776 ft 474 kts 328°
2026-05-04 16:20 23.68026 38.25099 39768 ft 473 kts 328°
2026-05-04 16:22 23.83227 38.18238 39757 ft 471 kts 328°
2026-05-04 16:23 24.01407 38.10011 39748 ft 471 kts 328°
2026-05-04 16:25 24.18983 38.00869 39747 ft 457 kts 317°
2026-05-04 16:26 24.37286 37.87118 39757 ft 456 kts 316°
2026-05-04 16:28 24.50376 37.77270 39767 ft 456 kts 316°
2026-05-04 16:29 24.68705 37.63435 39794 ft 457 kts 316°
2026-05-04 16:31 24.81816 37.53506 39826 ft 459 kts 316°
2026-05-04 16:32 24.97563 37.41546 39844 ft 458 kts 316°
2026-05-04 16:33 25.08060 37.33551 39861 ft 459 kts 316°
2026-05-04 16:34 25.15932 37.27546 39867 ft 459 kts 316°
2026-05-04 16:35 25.31153 37.15919 39878 ft 460 kts 316°
2026-05-04 16:36 25.39106 37.09819 39879 ft 459 kts 315°
2026-05-04 16:37 25.46972 37.03772 39887 ft 459 kts 315°
2026-05-04 16:38 25.57461 36.95697 39888 ft 459 kts 315°
2026-05-04 16:39 25.69664 36.86284 39888 ft 459 kts 315°
2026-05-04 16:40 25.80135 36.78197 39888 ft 458 kts 315°
2026-05-04 16:41 25.93203 36.68067 39901 ft 458 kts 315°
2026-05-04 16:43 26.06224 36.57947 39907 ft 457 kts 315°
2026-05-04 16:43 26.14039 36.51857 39906 ft 457 kts 315°
2026-05-04 16:44 26.23336 36.42667 39915 ft 442 kts 305°
2026-05-04 16:45 26.27601 36.37743 39915 ft 442 kts 304°
2026-05-04 16:46 26.38269 36.25392 39916 ft 442 kts 304°
2026-05-04 16:47 26.46810 36.15511 39916 ft 442 kts 304°
2026-05-04 16:48 26.55340 36.05622 39915 ft 442 kts 304°
2026-05-04 16:49 26.63863 35.95720 39915 ft 441 kts 304°
2026-05-04 16:50 26.72341 35.85846 39916 ft 441 kts 304°
2026-05-04 16:51 26.78710 35.78407 39916 ft 442 kts 304°
2026-05-04 16:52 26.87207 35.68474 39907 ft 441 kts 304°
2026-05-04 16:53 26.93567 35.61025 39906 ft 441 kts 304°
2026-05-04 16:54 27.02031 35.51094 39906 ft 439 kts 304°
2026-05-04 16:55 27.14660 35.36219 39906 ft 439 kts 304°
2026-05-04 16:56 27.25173 35.23804 39906 ft 438 kts 304°
2026-05-04 16:57 27.31474 35.16343 39906 ft 438 kts 304°
2026-05-04 16:58 27.39867 35.06389 39906 ft 438 kts 304°
2026-05-04 17:00 27.52444 34.91441 39906 ft 439 kts 304°
2026-05-04 17:01 27.63730 34.79641 39908 ft 443 kts 307°
2026-05-04 17:02 27.72703 34.70169 39906 ft 441 kts 307°
2026-05-04 17:03 27.79400 34.63056 39906 ft 441 kts 307°
2026-05-04 17:03 27.86096 34.55935 39909 ft 440 kts 307°
2026-05-04 17:04 27.95003 34.46444 39916 ft 440 kts 307°
2026-05-04 17:05 28.03321 34.36510 39917 ft 430 kts 301°
2026-05-04 17:06 28.08984 34.28679 39916 ft 428 kts 300°
2026-05-04 17:07 28.13359 34.22597 39913 ft 428 kts 300°